This is the latest recevied weather packets stored in our database for station/object K4GSL. If no packets are shown the sender has not sent any weather packets the latest 10 day(s).
| Time | Temp. | Humidity | Pressure | Rain* | Wind** | Luminosity | Snow |
|---|---|---|---|---|---|---|---|
| 1777567712 | 15° C | 72% | 1023 hPa | 0 mm | - | 157 W/m² | - |
| 1777567408 | 14.44° C | 72% | 1023 hPa | 0 mm | - | 139 W/m² | - |
| 1777567106 | 13.89° C | 73% | 1023 hPa | 0 mm | - | 162 W/m² | - |
| 1777566804 | 13.33° C | 75% | 1023.2 hPa | 0 mm | - | 287 W/m² | - |
| 1777566502 | 13.33° C | 74% | 1023 hPa | 0 mm | - | 188 W/m² | - |
| 1777566199 | 13.33° C | 76% | 1023.3 hPa | 0 mm | - | 128 W/m² | - |
| 1777565895 | 12.78° C | 77% | 1023.5 hPa | 0 mm | - | 120 W/m² | - |
| 1777565591 | 12.78° C | 77% | 1023.3 hPa | 0 mm | - | 119 W/m² | - |
| 1777565288 | 12.78° C | 79% | 1023.4 hPa | 0 mm | - | 115 W/m² | - |
| 1777564983 | 12.22° C | 79% | 1023.3 hPa | 0 mm | - | 116 W/m² | - |
| 1777564679 | 11.67° C | 82% | 1023.3 hPa | 0 mm | - | 121 W/m² | - |
| 1777564374 | 11.67° C | 80% | 1023.4 hPa | 0 mm | - | 127 W/m² | - |
| 1777564071 | 11.67° C | 82% | 1023.4 hPa | 0 mm | - | 114 W/m² | - |
| 1777563767 | 11.11° C | 82% | 1023.3 hPa | 0 mm | - | 108 W/m² | - |
| 1777563464 | 11.11° C | 83% | 1023.3 hPa | 0 mm | - | 100 W/m² | - |
| 1777563163 | 10.56° C | 83% | 1023.6 hPa | 0 mm | - | 90 W/m² | - |
| 1777562859 | 10.56° C | 85% | 1023.4 hPa | 0 mm | - | 82 W/m² | - |
| 1777562556 | 10.56° C | 86% | 1023.4 hPa | 0 mm | - | 77 W/m² | - |
| 1777562254 | 10° C | 87% | 1023.4 hPa | 0 mm | - | 74 W/m² | - |
| 1777561952 | 10° C | 88% | 1023.3 hPa | 0 mm | - | 74 W/m² | - |
| 1777561649 | 10° C | 88% | 1023.7 hPa | 0 mm | - | 75 W/m² | - |
| 1777561344 | 9.44° C | 90% | 1023.5 hPa | 0 mm | - | 78 W/m² | - |
| 1777561040 | 8.89° C | 92% | 1023.4 hPa | 0 mm | - | 77 W/m² | - |
| 1777560735 | 8.33° C | 93% | 1023.5 hPa | 0 mm | - | 73 W/m² | - |
| 1777560432 | 8.33° C | 93% | 1023.3 hPa | 0 mm | - | 67 W/m² | - |
* Rain latest hour (hover to see other rain measurements)
** Current wind speed in m/s (hover to see current wind gust speed)